Weather History for Yellowstone, WY

Change the Weather History Date:

Monday, January 13, 2014

  Actual Average Record
Temperature  
Mean Temperature 22 °F 13 °F  
Max Temperature 26 °F 24 °F 32 °F (2003)
Min Temperature 18 °F 1 °F -29 °F (2013)
Degree Days  
Heating Degree Days 43 52  
Month to date heating degree days 667 676  
Since 1 July heating degree days 5604 5586  
Cooling Degree Days 0 0  
Month to date cooling degree days 0 0  
Year to date cooling degree days 0 0  
Moisture  
Dew Point 18 °F    
Average Humidity 83    
Maximum Humidity 91    
Minimum Humidity 74    
Precipitation  
Precipitation 0.17 in 0.08 in 0.31 in (2011)
Month to date precipitation 1.35 1.07  
Year to date precipitation 1.35 1.07  
Sea Level Pressure  
Sea Level Pressure 30.21 in    
Wind  
Wind Speed 7 mph (West)    
Max Wind Speed 18 mph    
Max Gust Speed 32 mph    
T = Trace of Precipitation, MM = Missing Value Source: NWS Daily Summary

Daily Weather History Graph

Daily Weather History Graph

Search for Another Location

Airport:

Trip Planner

Search our weather history database for the weather conditions in past years. The results will help you decide how hot, cold, wet, or windy it might be!

Date:

Astronomy

Jan. 13, 2014 Rise Set
Actual Time 7:55 AM MST 5:05 PM MST
Civil Twilight 7:23 AM MST 5:38 PM MST
Nautical Twilight 6:47 AM MST 6:14 PM MST
Astronomical Twilight 6:12 AM MST 6:49 PM MST
Moon 3:24 PM MST (1/13) 5:46 AM MST (1/13)
Length of Visible Light 10h 14m
Length of Day
9h 09m
Waxing Gibbous, 95% of the Moon is Illuminated
Jan 13
Waxing Gibbous
Jan 15
Full
Jan 23
Last Quarter
Jan 30
New
Feb 6
First Quarter

Hourly Weather History & Observations

Time (MST) Temp. Windchill Dew Point Humidity Pressure Visibility Wind Dir Wind Speed Gust Speed Precip Events Conditions
12:56 AM 18.0 °F 7.7 °F 14.0 °F 84% 30.13 in - West 8.1 mph 17.3 mph 0.03 in   Unknown
1:56 AM 18.0 °F 7.7 °F 14.0 °F 84% 30.17 in - West 8.1 mph - 0.01 in   Unknown
2:56 AM 19.0 °F 11.1 °F 15.1 °F 85% 30.17 in - Variable 5.8 mph - 0.03 in   Unknown
3:56 AM 19.0 °F 10.0 °F 15.1 °F 85% 30.18 in - West 6.9 mph - 0.01 in   Unknown
4:56 AM 19.9 °F 14.9 °F 15.1 °F 81% 30.17 in - Variable 3.5 mph - N/A   Unknown
5:56 AM 19.9 °F - 16.0 °F 85% 30.19 in - Calm Calm - 0.01 in   Unknown
6:56 AM 19.9 °F 13.4 °F 17.1 °F 89% 30.19 in - Variable 4.6 mph - N/A   Unknown
7:56 AM 21.0 °F 13.4 °F 18.0 °F 88% 30.19 in - Variable 5.8 mph - 0.01 in   Unknown
8:56 AM 21.9 °F 14.5 °F 18.0 °F 85% 30.18 in - Variable 5.8 mph - N/A   Unknown
9:56 AM 23.0 °F 14.7 °F 19.0 °F 85% 30.21 in - Variable 6.9 mph - N/A   Unknown
10:56 AM 25.0 °F 19.3 °F 19.9 °F 81% 30.21 in - Variable 4.6 mph - N/A   Unknown
11:56 AM 24.1 °F 16.0 °F 19.9 °F 84% 30.22 in - Variable 6.9 mph - N/A   Unknown
12:56 PM 24.1 °F 16.0 °F 19.9 °F 84% 30.22 in - Variable 6.9 mph - N/A   Unknown
1:56 PM 24.1 °F 15.2 °F 19.9 °F 84% 30.18 in - West 8.1 mph - N/A   Unknown
2:56 PM 24.1 °F 19.7 °F 19.9 °F 84% 30.21 in - Variable 3.5 mph - N/A   Unknown
3:56 PM 25.0 °F - 19.0 °F 78% 30.19 in - Calm Calm - N/A   Unknown
4:56 PM 25.0 °F 13.1 °F 18.0 °F 75% 30.17 in - West 13.8 mph 24.2 mph N/A   Unknown
5:56 PM 25.0 °F 14.8 °F 19.0 °F 78% 30.19 in - West 10.4 mph 28.8 mph N/A   Unknown
6:56 PM 24.1 °F 12.5 °F 18.0 °F 77% 30.23 in - West 12.7 mph 24.2 mph N/A   Unknown
7:56 PM 24.1 °F 14.4 °F 19.9 °F 84% 30.25 in - West 9.2 mph 17.3 mph N/A   Unknown
8:56 PM 24.1 °F 13.7 °F 19.9 °F 84% 30.27 in - West 10.4 mph 23.0 mph 0.01 in   Unknown
9:56 PM 24.1 °F 12.5 °F 19.9 °F 84% 30.26 in - West 12.7 mph 25.3 mph 0.02 in   Unknown
10:56 PM 23.0 °F 14.7 °F 19.9 °F 88% 30.28 in - Variable 6.9 mph 19.6 mph 0.02 in   Unknown
11:56 PM 23.0 °F 14.7 °F 19.9 °F 88% 30.30 in - Variable 6.9 mph - 0.02 in   Unknown